| time (UTC) | temp F | wind direction | speed MPH | gust MPH | rain 1hr in | rain 24hr in | rain mn in | humidity % | barometer mb |
| 20260506145038 | 65 | 0 | 0.0 | 3.0 | 0.00 | 0.00 | 0.00 | 78 | 1012.7 |
| 20260506144551 | 65 | 0 | 0.0 | 3.0 | 0.00 | 0.00 | 0.00 | 81 | 1013.0 |
| 20260506144041 | 65 | 0 | 0.0 | 2.0 | 0.00 | 0.00 | 0.00 | 82 | 1012.9 |
| 20260506143539 | 64 | 164 | 0.0 | 3.0 | 0.00 | 0.00 | 0.00 | 82 | 1013.0 |
| 20260506143056 | 64 | 164 | 0.0 | 3.0 | 0.00 | 0.00 | 0.00 | 81 | 1012.7 |
| 20260506142538 | 64 | 170 | 0.0 | 3.0 | 0.00 | 0.00 | 0.00 | 82 | 1012.8 |
| 20260506142038 | 64 | 89 | 0.0 | 5.0 | 0.00 | 0.00 | 0.00 | 83 | 1012.9 |
| 20260506141554 | 64 | 18 | 1.0 | 5.0 | 0.00 | 0.00 | 0.00 | 81 | 1012.7 |
| 20260506141039 | 64 | 226 | 0.0 | 3.0 | 0.00 | 0.00 | 0.00 | 83 | 1012.5 |
| 20260506140542 | 64 | 0 | 0.0 | 2.0 | 0.00 | 0.00 | 0.00 | 80 | 1012.6 |
| 20260506140104 | 64 | 326 | 1.0 | 3.0 | 0.00 | 0.00 | 0.00 | 80 | 1012.8 |
| 20260506135539 | 65 | 0 | 1.0 | 3.0 | 0.00 | 0.00 | 0.00 | 81 | 1012.8 |
| 20260506135039 | 65 | 148 | 1.0 | 3.0 | 0.00 | 0.00 | 0.00 | 80 | 1012.8 |
| 20260506134550 | 65 | 331 | 1.0 | 4.0 | 0.00 | 0.00 | 0.00 | 82 | 1012.9 |
| 20260506134039 | 65 | 255 | 1.0 | 4.0 | 0.00 | 0.00 | 0.00 | 81 | 1012.9 |
| 20260506133539 | 65 | 25 | 1.0 | 4.0 | 0.00 | 0.00 | 0.00 | 82 | 1013.0 |
| 20260506133051 | 64 | 50 | 1.0 | 3.0 | 0.00 | 0.00 | 0.00 | 82 | 1012.9 |
| 20260506132539 | 64 | 332 | 1.0 | 3.0 | 0.00 | 0.00 | 0.00 | 83 | 1012.8 |
| 20260506132043 | 64 | 6 | 1.0 | 5.0 | 0.00 | 0.00 | 0.00 | 82 | 1012.8 |
| 20260506131553 | 64 | 0 | 1.0 | 5.0 | 0.00 | 0.00 | 0.00 | 83 | 1012.7 |
| 20260506131040 | 63 | 104 | 1.0 | 4.0 | 0.00 | 0.00 | 0.00 | 83 | 1012.6 |
| 20260506130540 | 63 | 295 | 1.0 | 4.0 | 0.00 | 0.00 | 0.00 | 83 | 1012.6 |
| 20260506125539 | 63 | 106 | 0.0 | 3.0 | 0.00 | 0.00 | 0.00 | 84 | 1012.8 |
| 20260506125040 | 62 | 302 | 1.0 | 6.0 | 0.00 | 0.00 | 0.00 | 84 | 1012.7 |
| 20260506124550 | 62 | 131 | 0.0 | 6.0 | 0.00 | 0.00 | 0.00 | 85 | 1012.6 |
| 20260506124039 | 61 | 67 | 0.0 | 5.0 | 0.00 | 0.00 | 0.00 | 85 | 1012.7 |
| 20260506123539 | 61 | 85 | 0.0 | 3.0 | 0.00 | 0.00 | 0.00 | 86 | 1012.8 |
| 20260506123048 | 61 | 267 | 0.0 | 2.0 | 0.00 | 0.00 | 0.00 | 86 | 1012.9 |
| 20260506122539 | 60 | 173 | 0.0 | 2.0 | 0.00 | 0.00 | 0.00 | 86 | 1012.8 |
| 20260506122038 | 60 | 0 | 0.0 | 4.0 | 0.00 | 0.00 | 0.00 | 86 | 1012.8 |
| 20260506121547 | 60 | 0 | 0.0 | 4.0 | 0.00 | 0.00 | 0.00 | 87 | 1012.7 |
| 20260506121039 | 60 | 347 | 1.0 | 4.0 | 0.00 | 0.00 | 0.00 | 87 | 1012.7 |
| 20260506120539 | 59 | 0 | 1.0 | 4.0 | 0.00 | 0.00 | 0.00 | 87 | 1012.8 |
| 20260506120053 | 59 | 321 | 0.0 | 3.0 | 0.00 | 0.00 | 0.00 | 88 | 1012.8 |
| 20260506115539 | 58 | 0 | 1.0 | 3.0 | 0.00 | 0.00 | 0.00 | 89 | 1012.9 |
| 20260506115039 | 58 | 0 | 0.0 | 3.0 | 0.00 | 0.00 | 0.00 | 89 | 1013.0 |
| 20260506114548 | 57 | 0 | 1.0 | 3.0 | 0.00 | 0.00 | 0.00 | 90 | 1012.9 |
| 20260506114039 | 56 | 197 | 0.0 | 3.0 | 0.00 | 0.00 | 0.00 | 91 | 1013.0 |
| 20260506113539 | 56 | 92 | 1.0 | 3.0 | 0.00 | 0.00 | 0.00 | 91 | 1013.0 |
| 20260506113049 | 55 | 0 | 0.0 | 3.0 | 0.00 | 0.00 | 0.00 | 91 | 1013.0 |
| 20260506112540 | 55 | 0 | 0.0 | 3.0 | 0.00 | 0.00 | 0.00 | 90 | 1013.1 |
| 20260506112039 | 55 | 358 | 1.0 | 3.0 | 0.00 | 0.00 | 0.00 | 91 | 1013.0 |
| 20260506111549 | 55 | 351 | 0.0 | 3.0 | 0.00 | 0.00 | 0.00 | 91 | 1013.0 |
| 20260506111039 | 55 | 129 | 0.0 | 2.0 | 0.00 | 0.00 | 0.00 | 91 | 1012.9 |
| 20260506110539 | 55 | 322 | 0.0 | 3.0 | 0.00 | 0.00 | 0.00 | 92 | 1013.0 |
| 20260506110053 | 55 | 322 | 0.0 | 3.0 | 0.00 | 0.00 | 0.00 | 92 | 1012.9 |
| 20260506105539 | 55 | 8 | 0.0 | 4.0 | 0.00 | 0.00 | 0.00 | 93 | 1012.9 |
| 20260506105039 | 54 | 229 | 0.0 | 4.0 | 0.00 | 0.00 | 0.00 | 93 | 1013.0 |
| 20260506104610 | 54 | 18 | 0.0 | 3.0 | 0.00 | 0.00 | 0.00 | 93 | 1013.0 |
| 20260506104038 | 54 | 345 | 1.0 | 3.0 | 0.00 | 0.00 | 0.00 | 93 | 1013.0 |
| 20260506103539 | 53 | 11 | 0.0 | 2.0 | 0.00 | 0.00 | 0.00 | 93 | 1012.9 |
| 20260506103048 | 53 | 10 | 0.0 | 3.0 | 0.00 | 0.00 | 0.00 | 92 | 1013.1 |
| 20260506102540 | 53 | 10 | 0.0 | 3.0 | 0.00 | 0.00 | 0.00 | 92 | 1013.0 |
| 20260506102040 | 53 | 0 | 0.0 | 2.0 | 0.00 | 0.00 | 0.00 | 93 | 1012.7 |
| 20260506101554 | 53 | 164 | 0.0 | 2.0 | 0.00 | 0.00 | 0.00 | 93 | 1012.7 |
| 20260506101039 | 53 | 0 | 0.0 | 3.0 | 0.00 | 0.00 | 0.00 | 93 | 1012.9 |
| 20260506100539 | 53 | 0 | 0.0 | 3.0 | 0.00 | 0.00 | 0.00 | 93 | 1012.8 |
| 20260506100048 | 53 | 357 | 0.0 | 2.0 | 0.00 | 0.00 | 0.00 | 92 | 1012.8 |
| 20260506095543 | 53 | 204 | 0.0 | 2.0 | 0.00 | 0.00 | 0.00 | 92 | 1012.7 |
| 20260506095039 | 53 | 0 | 0.0 | 2.0 | 0.00 | 0.00 | 0.00 | 92 | 1012.7 |
| 20260506094556 | 52 | 204 | 0.0 | 2.0 | 0.00 | 0.00 | 0.00 | 92 | 1012.8 |
| 20260506094038 | 52 | 204 | 0.0 | 2.0 | 0.00 | 0.00 | 0.00 | 92 | 1012.8 |
| 20260506093542 | 53 | 0 | 0.0 | 3.0 | 0.00 | 0.00 | 0.00 | 92 | 1012.9 |
| 20260506093055 | 53 | 204 | 0.0 | 3.0 | 0.00 | 0.00 | 0.00 | 92 | 1012.8 |
| 20260506092542 | 53 | 204 | 0.0 | 3.0 | 0.00 | 0.00 | 0.00 | 92 | 1012.8 |
| 20260506092039 | 53 | 0 | 0.0 | 3.0 | 0.00 | 0.00 | 0.00 | 92 | 1012.9 |
| 20260506091547 | 53 | 0 | 0.0 | 2.0 | 0.00 | 0.00 | 0.00 | 92 | 1013.0 |
| 20260506091040 | 53 | 0 | 0.0 | 2.0 | 0.00 | 0.00 | 0.00 | 92 | 1013.1 |
| 20260506090537 | 53 | 0 | 0.0 | 2.0 | 0.00 | 0.00 | 0.00 | 92 | 1013.1 |
| 20260506090051 | 53 | 0 | 0.0 | 11.0 | 0.00 | 0.00 | 0.00 | 92 | 1013.1 |
| 20260506085536 | 54 | 0 | 0.0 | 11.0 | 0.00 | 0.00 | 0.00 | 92 | 1013.1 |
| 20260506085039 | 54 | 8 | 0.0 | 11.0 | 0.00 | 0.00 | 0.00 | 92 | 1013.2 |
| 20260506084552 | 54 | 0 | 0.0 | 2.0 | 0.00 | 0.00 | 0.00 | 92 | 1013.1 |
| 20260506084039 | 54 | 0 | 0.0 | 2.0 | 0.00 | 0.00 | 0.00 | 92 | 1013.1 |
| 20260506083539 | 54 | 0 | 0.0 | 2.0 | 0.00 | 0.00 | 0.00 | 92 | 1013.1 |
| 20260506083051 | 54 | 241 | 0.0 | 2.0 | 0.00 | 0.00 | 0.00 | 92 | 1013.2 |
| 20260506082542 | 54 | 0 | 0.0 | 3.0 | 0.00 | 0.00 | 0.00 | 92 | 1013.3 |
| 20260506082040 | 54 | 33 | 0.0 | 3.0 | 0.00 | 0.00 | 0.00 | 92 | 1013.2 |
| 20260506081550 | 54 | 210 | 0.0 | 2.0 | 0.00 | 0.00 | 0.00 | 93 | 1013.2 |
| 20260506081038 | 54 | 0 | 0.0 | 2.0 | 0.00 | 0.00 | 0.00 | 93 | 1013.2 |
| 20260506080537 | 54 | 0 | 0.0 | 2.0 | 0.00 | 0.00 | 0.00 | 93 | 1013.2 |
| 20260506073051 | 52 | 299 | 0.0 | 3.0 | 0.00 | 0.00 | 0.00 | 93 | 1013.2 |
| 20260506072537 | 52 | 160 | 0.0 | 1.0 | 0.00 | 0.00 | 0.00 | 93 | 1013.2 |
| 20260506072039 | 52 | 0 | 0.0 | 2.0 | 0.00 | 0.00 | 0.00 | 93 | 1013.2 |
| 20260506071604 | 51 | 0 | 0.0 | 2.0 | 0.00 | 0.00 | 0.00 | 92 | 1013.2 |
| 20260506071039 | 51 | 0 | 0.0 | 2.0 | 0.00 | 0.00 | 0.00 | 92 | 1013.3 |
| 20260506070538 | 51 | 0 | 0.0 | 1.0 | 0.00 | 0.00 | 0.00 | 92 | 1013.2 |
| 20260506062039 | 52 | 0 | 0.0 | 2.0 | 0.00 | 0.00 | 0.00 | 92 | 1013.2 |
| 20260506061546 | 52 | 0 | 0.0 | 2.0 | 0.00 | 0.00 | 0.00 | 92 | 1013.2 |
| 20260506061040 | 52 | 0 | 0.0 | 2.0 | 0.00 | 0.00 | 0.00 | 92 | 1013.3 |
| 20260506060538 | 52 | 0 | 0.0 | 3.0 | 0.00 | 0.00 | 0.00 | 92 | 1013.3 |
| 20260506051039 | 52 | 0 | 0.0 | 3.0 | 0.00 | 0.00 | 0.00 | 91 | 1013.8 |
| 20260506050538 | 52 | 0 | 0.0 | 3.0 | 0.00 | 0.00 | 0.00 | 91 | 1013.8 |
| 20260506045040 | 52 | 0 | 0.0 | 3.0 | 0.00 | 0.00 | 0.00 | 91 | 1013.8 |
| 20260506044559 | 52 | 0 | 0.0 | 3.0 | 0.00 | 0.00 | 0.00 | 91 | 1013.7 |
| 20260506044039 | 52 | 0 | 0.0 | 2.0 | 0.00 | 0.00 | 0.00 | 91 | 1013.8 |
| 20260506043543 | 52 | 0 | 0.0 | 3.0 | 0.00 | 0.00 | 0.00 | 91 | 1013.7 |
| 20260506043045 | 52 | 0 | 0.0 | 3.0 | 0.00 | 0.00 | 0.00 | 91 | 1013.8 |
| 20260506042540 | 52 | 0 | 0.0 | 3.0 | 0.00 | 0.00 | 0.00 | 91 | 1013.7 |
| 20260506042041 | 52 | 92 | 0.0 | 2.0 | 0.00 | 0.00 | 0.00 | 91 | 1013.6 |
| 20260506041603 | 52 | 0 | 0.0 | 3.0 | 0.00 | 0.00 | 0.00 | 91 | 1013.8 |
| 20260506041039 | 52 | 0 | 0.0 | 3.0 | 0.00 | 0.00 | 0.00 | 91 | 1013.8 |
| 20260506040535 | 52 | 0 | 0.0 | 3.0 | 0.00 | 0.00 | 0.00 | 91 | 1013.8 |
| 20260506040054 | 52 | 0 | 0.0 | 2.0 | 0.00 | 0.00 | 0.00 | 91 | 1013.8 |
| 20260506035542 | 52 | 172 | 0.0 | 2.0 | 0.00 | 0.00 | 0.00 | 91 | 1013.8 |
| 20260506035043 | 52 | 0 | 0.0 | 2.0 | 0.00 | 0.00 | 0.00 | 91 | 1013.7 |
| 20260506034549 | 52 | 224 | 0.0 | 2.0 | 0.00 | 0.00 | 0.00 | 91 | 1013.7 |
| 20260506034038 | 52 | 0 | 0.0 | 3.0 | 0.00 | 0.00 | 0.00 | 91 | 1013.8 |
| 20260506033542 | 52 | 0 | 0.0 | 3.0 | 0.00 | 0.00 | 0.00 | 91 | 1013.8 |
| 20260506033048 | 51 | 224 | 0.0 | 3.0 | 0.00 | 0.00 | 0.00 | 91 | 1013.8 |
| 20260506032539 | 51 | 0 | 0.0 | 3.0 | 0.00 | 0.00 | 0.00 | 91 | 1013.7 |
| 20260506032040 | 51 | 0 | 0.0 | 2.0 | 0.00 | 0.00 | 0.00 | 90 | 1013.6 |
| 20260506031555 | 51 | 0 | 0.0 | 2.0 | 0.00 | 0.00 | 0.00 | 90 | 1013.6 |
| 20260506031040 | 51 | 0 | 0.0 | 2.0 | 0.00 | 0.00 | 0.00 | 90 | 1013.6 |
| 20260506030540 | 51 | 0 | 0.0 | 2.0 | 0.00 | 0.00 | 0.00 | 90 | 1013.6 |
| 20260506030052 | 51 | 0 | 0.0 | 3.0 | 0.00 | 0.00 | 0.00 | 90 | 1013.6 |
| 20260506025541 | 51 | 93 | 0.0 | 3.0 | 0.00 | 0.00 | 0.00 | 90 | 1013.6 |
| 20260506025038 | 51 | 0 | 0.0 | 3.0 | 0.00 | 0.00 | 0.00 | 90 | 1013.5 |
| 20260506024549 | 51 | 0 | 0.0 | 2.0 | 0.00 | 0.00 | 0.00 | 90 | 1013.6 |
| 20260506024038 | 51 | 0 | 0.0 | 2.0 | 0.00 | 0.00 | 0.00 | 89 | 1013.6 |
| 20260506023540 | 51 | 0 | 0.0 | 2.0 | 0.00 | 0.00 | 0.00 | 89 | 1013.6 |
| 20260506023048 | 51 | 0 | 0.0 | 2.0 | 0.00 | 0.00 | 0.00 | 89 | 1013.4 |
| 20260506022539 | 51 | 0 | 0.0 | 2.0 | 0.00 | 0.00 | 0.00 | 89 | 1013.5 |
| 20260506022039 | 51 | 0 | 0.0 | 2.0 | 0.00 | 0.00 | 0.00 | 89 | 1013.6 |
| 20260506021548 | 51 | 0 | 0.0 | 2.0 | 0.00 | 0.00 | 0.00 | 89 | 1013.5 |
| 20260506021039 | 51 | 0 | 0.0 | 2.0 | 0.00 | 0.00 | 0.00 | 89 | 1013.5 |
| 20260506020538 | 51 | 0 | 0.0 | 1.0 | 0.00 | 0.00 | 0.00 | 88 | 1013.6 |
| 20260506020047 | 51 | 0 | 0.0 | 3.0 | 0.00 | 0.00 | 0.00 | 88 | 1013.6 |
| 20260506015540 | 51 | 334 | 0.0 | 3.0 | 0.00 | 0.00 | 0.00 | 88 | 1013.6 |
| 20260506015040 | 51 | 201 | 0.0 | 2.0 | 0.00 | 0.00 | 0.00 | 88 | 1013.4 |
| 20260506014554 | 51 | 0 | 0.0 | 2.0 | 0.00 | 0.00 | 0.00 | 88 | 1013.4 |
| 20260506014039 | 51 | 264 | 0.0 | 2.0 | 0.00 | 0.00 | 0.00 | 88 | 1013.4 |
| 20260506013539 | 51 | 0 | 0.0 | 1.0 | 0.00 | 0.00 | 0.00 | 88 | 1013.4 |
| 20260506013047 | 51 | 0 | 0.0 | 1.0 | 0.00 | 0.00 | 0.00 | 88 | 1013.5 |
| 20260506012539 | 51 | 0 | 0.0 | 2.0 | 0.00 | 0.00 | 0.00 | 88 | 1013.4 |
| 20260506012040 | 51 | 0 | 0.0 | 2.0 | 0.00 | 0.00 | 0.00 | 88 | 1013.4 |
| 20260506011553 | 51 | 0 | 0.0 | 2.0 | 0.00 | 0.00 | 0.00 | 88 | 1013.4 |
| 20260506011038 | 51 | 0 | 0.0 | 2.0 | 0.00 | 0.00 | 0.00 | 88 | 1013.4 |
| 20260506010541 | 51 | 0 | 0.0 | 2.0 | 0.00 | 0.00 | 0.00 | 87 | 1013.3 |
| 20260506010049 | 52 | 0 | 0.0 | 2.0 | 0.00 | 0.00 | 0.00 | 87 | 1013.1 |
| 20260506005542 | 52 | 0 | 0.0 | 2.0 | 0.00 | 0.00 | 0.00 | 87 | 1013.1 |
| 20260506005038 | 52 | 0 | 0.0 | 2.0 | 0.00 | 0.00 | 0.00 | 87 | 1013.0 |
| 20260506004555 | 52 | 0 | 0.0 | 2.0 | 0.00 | 0.00 | 0.00 | 87 | 1013.1 |
| 20260506004038 | 52 | 0 | 0.0 | 2.0 | 0.00 | 0.00 | 0.00 | 87 | 1013.0 |
| 20260506003539 | 52 | 0 | 0.0 | 4.0 | 0.00 | 0.00 | 0.00 | 87 | 1012.8 |
| 20260506003049 | 53 | 0 | 0.0 | 4.0 | 0.00 | 0.00 | 0.00 | 87 | 1012.7 |
| 20260506002542 | 53 | 239 | 0.0 | 2.0 | 0.00 | 0.00 | 0.00 | 87 | 1012.6 |
| 20260506002039 | 53 | 0 | 0.0 | 2.0 | 0.00 | 0.00 | 0.00 | 87 | 1012.3 |
| 20260506001607 | 53 | 0 | 0.0 | 2.0 | 0.00 | 0.00 | 0.00 | 87 | 1011.9 |
| 20260506001039 | 53 | 239 | 0.0 | 5.0 | 0.00 | 0.00 | 0.00 | 86 | 1011.8 |
| 20260506000539 | 53 | 0 | 0.0 | 5.0 | 0.00 | 0.00 | 0.00 | 87 | 1011.6 |
| 20260506000048 | 53 | 0 | 0.0 | 2.0 | 0.00 | 0.00 | 0.00 | 86 | 1011.6 |
| 20260505235539 | 53 | 0 | 0.0 | 3.0 | 0.00 | 0.00 | 0.00 | 86 | 1011.8 |
| 20260505235039 | 54 | 134 | 0.0 | 3.0 | 0.00 | 0.00 | 0.00 | 86 | 1011.7 |
| 20260505234552 | 54 | 141 | 0.0 | 2.0 | 0.00 | 0.00 | 0.00 | 86 | 1011.8 |
| 20260505234039 | 54 | 141 | 0.0 | 3.0 | 0.00 | 0.00 | 0.00 | 86 | 1011.8 |
| 20260505233539 | 54 | 141 | 0.0 | 3.0 | 0.00 | 0.00 | 0.00 | 86 | 1011.9 |
| 20260505233055 | 54 | 121 | 0.0 | 3.0 | 0.00 | 0.00 | 0.00 | 86 | 1011.9 |
| 20260505232538 | 55 | 5 | 1.0 | 3.0 | 0.00 | 0.00 | 0.00 | 86 | 1012.0 |
| 20260505232039 | 55 | 312 | 1.0 | 3.0 | 0.00 | 0.00 | 0.00 | 86 | 1012.0 |
| 20260505231554 | 55 | 75 | 1.0 | 2.0 | 0.00 | 0.00 | 0.00 | 86 | 1011.9 |
| 20260505231041 | 55 | 0 | 0.0 | 3.0 | 0.00 | 0.00 | 0.00 | 86 | 1011.9 |
| 20260505230539 | 55 | 45 | 1.0 | 3.0 | 0.00 | 0.00 | 0.00 | 86 | 1011.9 |
| 20260505230049 | 55 | 85 | 0.0 | 3.0 | 0.00 | 0.00 | 0.00 | 86 | 1011.8 |
| 20260505225539 | 55 | 0 | 1.0 | 3.0 | 0.00 | 0.00 | 0.00 | 86 | 1011.8 |
| 20260505225039 | 55 | 0 | 0.0 | 2.0 | 0.00 | 0.00 | 0.00 | 85 | 1011.7 |
| 20260505224550 | 55 | 347 | 0.0 | 3.0 | 0.00 | 0.00 | 0.00 | 85 | 1011.6 |
| 20260505224039 | 55 | 0 | 0.0 | 3.0 | 0.00 | 0.00 | 0.00 | 85 | 1011.5 |
| 20260505223538 | 56 | 110 | 0.0 | 3.0 | 0.00 | 0.00 | 0.00 | 84 | 1011.5 |
| 20260505223057 | 56 | 121 | 0.0 | 3.0 | 0.00 | 0.00 | 0.00 | 84 | 1011.6 |
| 20260505222538 | 56 | 351 | 0.0 | 3.0 | 0.00 | 0.00 | 0.00 | 84 | 1011.6 |
| 20260505222038 | 57 | 19 | 0.0 | 4.0 | 0.00 | 0.00 | 0.00 | 84 | 1011.3 |
| 20260505221559 | 57 | 0 | 0.0 | 4.0 | 0.00 | 0.00 | 0.00 | 83 | 1011.4 |
| 20260505221039 | 57 | 356 | 1.0 | 4.0 | 0.00 | 0.00 | 0.00 | 82 | 1011.4 |
| 20260505220542 | 58 | 253 | 0.0 | 3.0 | 0.00 | 0.00 | 0.00 | 82 | 1011.4 |
| 20260505220056 | 58 | 253 | 1.0 | 3.0 | 0.00 | 0.00 | 0.00 | 82 | 1011.4 |
| 20260505215539 | 58 | 0 | 0.0 | 3.0 | 0.00 | 0.00 | 0.00 | 82 | 1011.4 |
| 20260505215039 | 58 | 341 | 1.0 | 3.0 | 0.00 | 0.00 | 0.00 | 82 | 1011.5 |
| 20260505214604 | 58 | 340 | 0.0 | 3.0 | 0.00 | 0.00 | 0.00 | 82 | 1011.5 |
| 20260505214040 | 58 | 0 | 0.0 | 3.0 | 0.00 | 0.00 | 0.00 | 82 | 1011.4 |
| 20260505213535 | 58 | 85 | 0.0 | 2.0 | 0.00 | 0.00 | 0.00 | 82 | 1011.5 |
| 20260505213058 | 58 | 0 | 0.0 | 3.0 | 0.00 | 0.00 | 0.00 | 82 | 1011.5 |
| 20260505212538 | 58 | 0 | 0.0 | 3.0 | 0.00 | 0.00 | 0.00 | 83 | 1011.6 |
| 20260505212038 | 58 | 0 | 1.0 | 3.0 | 0.00 | 0.00 | 0.00 | 82 | 1011.5 |
| 20260505211557 | 58 | 0 | 0.0 | 3.0 | 0.00 | 0.00 | 0.00 | 82 | 1011.3 |
| 20260505211040 | 58 | 1 | 1.0 | 4.0 | 0.00 | 0.00 | 0.00 | 82 | 1011.3 |
| 20260505210536 | 59 | 275 | 1.0 | 4.0 | 0.00 | 0.00 | 0.00 | 82 | 1011.1 |
| 20260505210059 | 59 | 90 | 1.0 | 4.0 | 0.00 | 0.00 | 0.00 | 82 | 1011.3 |
| 20260505205539 | 59 | 287 | 1.0 | 3.0 | 0.00 | 0.00 | 0.00 | 81 | 1011.3 |
| 20260505205039 | 59 | 323 | 1.0 | 3.0 | 0.00 | 0.00 | 0.00 | 82 | 1011.3 |
| 20260505204554 | 59 | 0 | 0.0 | 10.0 | 0.00 | 0.00 | 0.00 | 82 | 1011.2 |
| 20260505204039 | 59 | 24 | 1.0 | 10.0 | 0.00 | 0.00 | 0.00 | 81 | 1011.3 |
| 20260505203539 | 60 | 11 | 0.0 | 4.0 | 0.00 | 0.00 | 0.00 | 80 | 1011.3 |
| 20260505203051 | 60 | 0 | 0.0 | 4.0 | 0.00 | 0.00 | 0.00 | 80 | 1011.3 |
| 20260505202538 | 60 | 212 | 1.0 | 4.0 | 0.00 | 0.00 | 0.00 | 80 | 1011.2 |
| 20260505202040 | 60 | 299 | 1.0 | 3.0 | 0.00 | 0.00 | 0.00 | 80 | 1011.3 |
| 20260505201559 | 61 | 24 | 0.0 | 2.0 | 0.00 | 0.00 | 0.00 | 79 | 1011.3 |
| 20260505201039 | 61 | 334 | 1.0 | 2.0 | 0.00 | 0.00 | 0.00 | 80 | 1011.1 |
| 20260505200540 | 61 | 0 | 0.0 | 3.0 | 0.00 | 0.00 | 0.00 | 79 | 1011.2 |
| 20260505200048 | 61 | 8 | 0.0 | 4.0 | 0.00 | 0.00 | 0.00 | 79 | 1011.3 |
| 20260505195538 | 61 | 45 | 0.0 | 4.0 | 0.00 | 0.00 | 0.00 | 79 | 1011.5 |
| 20260505195035 | 62 | 21 | 1.0 | 4.0 | 0.00 | 0.00 | 0.00 | 79 | 1011.5 |
| 20260505194549 | 62 | 0 | 1.0 | 3.0 | 0.00 | 0.00 | 0.00 | 77 | 1011.5 |
| 20260505194039 | 62 | 38 | 1.0 | 5.0 | 0.00 | 0.00 | 0.00 | 78 | 1011.6 |
| 20260505193541 | 62 | 45 | 0.0 | 5.0 | 0.00 | 0.00 | 0.00 | 78 | 1011.5 |
| 20260505193050 | 63 | 117 | 1.0 | 5.0 | 0.00 | 0.00 | 0.00 | 76 | 1011.5 |
| 20260505192542 | 64 | 135 | 1.0 | 3.0 | 0.00 | 0.00 | 0.00 | 75 | 1011.6 |
| 20260505192039 | 65 | 227 | 0.0 | 3.0 | 0.00 | 0.00 | 0.00 | 74 | 1011.5 |
| 20260505191552 | 65 | 89 | 0.0 | 3.0 | 0.00 | 0.00 | 0.00 | 74 | 1011.5 |
| 20260505191039 | 65 | 0 | 0.0 | 3.0 | 0.00 | 0.00 | 0.00 | 75 | 1011.4 |
| 20260505190539 | 66 | 119 | 0.0 | 3.0 | 0.00 | 0.00 | 0.00 | 75 | 1011.4 |
| 20260505190104 | 66 | 123 | 1.0 | 3.0 | 0.00 | 0.00 | 0.00 | 73 | 1011.7 |
| 20260505185539 | 66 | 0 | 1.0 | 3.0 | 0.00 | 0.00 | 0.00 | 74 | 1011.6 |
| 20260505185039 | 66 | 10 | 0.0 | 3.0 | 0.00 | 0.00 | 0.00 | 73 | 1011.6 |
| 20260505184605 | 66 | 24 | 0.0 | 3.0 | 0.00 | 0.00 | 0.00 | 74 | 1011.6 |
| 20260505184039 | 66 | 12 | 1.0 | 2.0 | 0.00 | 0.00 | 0.00 | 74 | 1011.5 |
| 20260505183539 | 67 | 56 | 0.0 | 2.0 | 0.00 | 0.00 | 0.00 | 75 | 1011.8 |
| 20260505183054 | 67 | 205 | 0.0 | 3.0 | 0.00 | 0.00 | 0.00 | 75 | 1011.6 |
| 20260505182538 | 67 | 342 | 1.0 | 3.0 | 0.00 | 0.00 | 0.00 | 77 | 1011.8 |
| 20260505182038 | 68 | 169 | 1.0 | 3.0 | 0.00 | 0.00 | 0.00 | 75 | 1011.8 |
| 20260505181547 | 68 | 90 | 0.0 | 2.0 | 0.00 | 0.00 | 0.00 | 74 | 1011.8 |
| 20260505181043 | 68 | 0 | 0.0 | 3.0 | 0.00 | 0.00 | 0.00 | 72 | 1011.8 |
| 20260505180539 | 68 | 85 | 0.0 | 3.0 | 0.00 | 0.00 | 0.00 | 75 | 1011.8 |
| 20260505180055 | 68 | 215 | 1.0 | 3.0 | 0.00 | 0.00 | 0.00 | 74 | 1011.8 |
| 20260505175539 | 69 | 289 | 0.0 | 3.0 | 0.00 | 0.00 | 0.00 | 75 | 1011.8 |
| 20260505175039 | 69 | 223 | 0.0 | 3.0 | 0.00 | 0.00 | 0.00 | 74 | 1011.7 |
| 20260505174552 | 69 | 218 | 1.0 | 3.0 | 0.00 | 0.00 | 0.00 | 75 | 1011.6 |
| 20260505174040 | 68 | 218 | 0.0 | 3.0 | 0.00 | 0.00 | 0.00 | 75 | 1011.7 |
| 20260505173539 | 68 | 217 | 1.0 | 4.0 | 0.00 | 0.00 | 0.00 | 77 | 1011.8 |
| 20260505173049 | 68 | 0 | 1.0 | 4.0 | 0.00 | 0.00 | 0.00 | 77 | 1011.8 |
| 20260505172538 | 68 | 52 | 1.0 | 4.0 | 0.00 | 0.00 | 0.00 | 73 | 1011.9 |
| 20260505172038 | 68 | 203 | 0.0 | 4.0 | 0.00 | 0.00 | 0.00 | 74 | 1012.0 |
| 20260505171548 | 68 | 127 | 1.0 | 4.0 | 0.00 | 0.00 | 0.00 | 75 | 1012.0 |
| 20260505171038 | 68 | 40 | 1.0 | 4.0 | 0.00 | 0.00 | 0.00 | 73 | 1012.1 |
| 20260505170538 | 69 | 235 | 1.0 | 2.0 | 0.00 | 0.00 | 0.00 | 75 | 1012.0 |
| 20260505170057 | 69 | 236 | 0.0 | 3.0 | 0.00 | 0.00 | 0.00 | 75 | 1012.0 |
| 20260505165539 | 69 | 233 | 1.0 | 3.0 | 0.00 | 0.00 | 0.00 | 76 | 1012.1 |
| 20260505165038 | 69 | 290 | 0.0 | 3.0 | 0.00 | 0.00 | 0.00 | 75 | 1012.1 |
| 20260505164549 | 68 | 283 | 0.0 | 3.0 | 0.00 | 0.00 | 0.00 | 75 | 1012.2 |
| 20260505164039 | 68 | 186 | 1.0 | 3.0 | 0.00 | 0.00 | 0.00 | 74 | 1012.4 |
| 20260505163538 | 68 | 0 | 0.0 | 4.0 | 0.00 | 0.00 | 0.00 | 76 | 1012.4 |
| 20260505163044 | 68 | 80 | 0.0 | 4.0 | 0.00 | 0.00 | 0.00 | 76 | 1012.5 |
| 20260505162538 | 68 | 318 | 1.0 | 3.0 | 0.00 | 0.00 | 0.00 | 77 | 1012.5 |
| 20260505162038 | 68 | 0 | 1.0 | 3.0 | 0.00 | 0.00 | 0.00 | 75 | 1012.4 |
| 20260505161548 | 67 | 0 | 0.0 | 3.0 | 0.00 | 0.00 | 0.00 | 77 | 1012.5 |
| 20260505161039 | 67 | 58 | 0.0 | 3.0 | 0.00 | 0.00 | 0.00 | 77 | 1012.5 |
| 20260505160543 | 67 | 44 | 0.0 | 3.0 | 0.00 | 0.00 | 0.00 | 76 | 1012.5 |
| 20260505153102 | 66 | 268 | 0.0 | 3.0 | 0.00 | 0.00 | 0.00 | 75 | 1012.5 |
| 20260505152538 | 66 | 140 | 0.0 | 3.0 | 0.00 | 0.00 | 0.00 | 76 | 1012.5 |
| 20260505152039 | 66 | 0 | 0.0 | 3.0 | 0.00 | 0.00 | 0.00 | 79 | 1012.6 |
| 20260505151547 | 66 | 0 | 0.0 | 3.0 | 0.00 | 0.00 | 0.00 | 76 | 1012.6 |
| 20260505151038 | 67 | 216 | 1.0 | 4.0 | 0.00 | 0.00 | 0.00 | 76 | 1012.7 |
| 20260505150539 | 67 | 222 | 1.0 | 4.0 | 0.00 | 0.00 | 0.00 | 76 | 1012.7 |
| 20260505150106 | 66 | 0 | 1.0 | 3.0 | 0.00 | 0.00 | 0.00 | 77 | 1012.7 |